Regional Weather Roundup
Issued by NWS

Home | Current Version | Previous Version | Graphics & Text | Print | Product List | Glossary On
Versions: 1 2 3 4 5 6 7 8 9 10 11 12 13 14 15 16 17 18 19 20 21 22 23 24 25 26 27 28 29 30 31 32 33 34 35 36 37 38 39 40 41 42 43 44 45 46 47 48 49 50
000
ASUS43 KMKX 071510
RWRWI

WISCONSIN REGIONAL WEATHER ROUNDUP
NATIONAL WEATHER SERVICE MILWAUKEE/SULLIVAN WI
900 AM CST SUN FEB 07 2016

NOTE: "FAIR" INDICATES FEW OR NO CLOUDS BELOW 12,000 FEET WITH NO
SIGNIFICANT WEATHER AND/OR OBSTRUCTIONS TO VISIBILITY.

WIZ001-002-006>008-014>016-023>028-071600-
NORTHWEST WISCONSIN

CITY           SKY/WX    TMP DP  RH WIND       PRES   REMARKS
SUPERIOR ARPT  DRIZZLE   35  33  93 SW9       29.47S WCI  27
ASHLAND        LGT SNOW  33  30  88 S8        29.49F FOG     WCI  26
HAYWARD        CLOUDY    33  28  81 SW12      29.50F WCI  24
SIREN          CLOUDY    36  31  81 W15G21    29.53S WCI  27
CUMBERLAND     CLOUDY    34  30  86 W12G17    29.54S WCI  25
RICE LAKE      CLOUDY    35  30  82 SW13      29.57S WCI  27
CHETEK         CLOUDY    34  30  86 SW8       29.56F WCI  27
LADYSMITH      CLOUDY    32  30  90 SW7       29.56F WCI  26
EAU CLAIRE     CLOUDY    35  28  75 W13       29.60S WCI  26
MENOMONIE      CLOUDY    37  31  80 SW12      29.60S WCI  29
NEW RICHMOND   CLOUDY    37  28  71 W15G26    29.59R WCI  28
OSCEOLA        CLOUDY    37  29  73 W14G26    29.61S WCI  29
$$

WIZ003>005-009-010-017-018-071600-
NORTH CENTRAL WISCONSIN

CITY           SKY/WX    TMP DP  RH WIND       PRES   REMARKS
MANITOWISH WTR MIX PCPN  30  30  99 S10       29.50F WCI  21
ARBOR VITAE    CLOUDY    32  30  92 SW8       29.52F FOG     WCI  25
WOODRUFF       CLOUDY    32  30  92 SW8       29.52F FOG     WCI  25
RHINELANDER    CLOUDY    30  27  88 SW12      29.54F WCI  20
EAGLE RIVER    CLOUDY    30  29  95 SW7       29.53S FOG     WCI  23
LAND O LAKES   CLOUDY    31  29  94 SW7       29.53S FOG     WCI  24
PHILLIPS       CLOUDY    31  28  91 S8        29.52F WCI  23
TOMAHAWK       CLOUDY    31  28  89 S3        29.56F
MEDFORD        CLOUDY    30  28  94 SW8       29.56F WCI  22
MERRILL        CLOUDY    32  29  89 SW10      29.58F WCI  24
$$

WIZ029-030-035-036-043>047-071600-
CENTRAL WISCONSIN

CITY           SKY/WX    TMP DP  RH WIND       PRES   REMARKS
WAUSAU         PTSUNNY   32  27  81 SW5       29.58F WCI  27
MOSINEE        SUNNY     30  28  93 SW10      29.61F WCI  21
MARSHFIELD     CLOUDY    33  26  75 SW12      29.59F WCI  24
STEVENS POINT  SUNNY     32  28  83 SW9       29.62F WCI  24
WAUPACA        SUNNY     37  30  75 SW9       29.64F WCI  30
WAUTOMA        SUNNY     37  30  76 SW9       29.66F WCI  30
WISC RAPIDS    SUNNY     33  27  78 SW12      29.64F WCI  24
CAMP DOUGLAS   MOSUNNY   36  34  93 SW10      29.65F WCI  28
$$

WIZ011>013-019>022-031-037>040-048>050-071600-
NORTHEAST WISCONSIN

CITY           SKY/WX    TMP DP  RH WIND       PRES   REMARKS
ANTIGO         CLOUDY    31  29  92 SW13      29.57F WCI  21
SHAWANO        MOSUNNY   37  31  78 SW6       29.62F WCI  32
OCONTO         CLOUDY    36  31  81 SW7       29.64F WCI  31
STURGEON BAY   MOSUNNY   34  28  80 S8        29.67F WCI  27
GREEN BAY      CLOUDY    36  30  79 S12       29.65F WCI  28
MANITOWOC      CLOUDY    39  30  70 SW9       29.68F WCI  33
APPLETON       MOSUNNY   34  27  75 S13       29.63F WCI  25
CLINTONVILLE   MOSUNNY   34  30  86 S8        29.63F WCI  27
OSHKOSH        MOSUNNY   36  29  75 SW10      29.66F WCI  28
$$

WIZ032>034-041-042-053>061-071600-
SOUTHWEST WISCONSIN

CITY           SKY/WX    TMP DP  RH WIND       PRES   REMARKS
LA CROSSE      PTSUNNY   35  27  72 SW10      29.69S WCI  27
SPARTA         SUNNY     37  29  75 W6        29.68S WCI  32
VIROQUA        SUNNY     34  28  80 W17       29.68S WCI  23
BOSCOBEL       SUNNY     37  30  75 SW13G18   29.73F WCI  29
PRAIRIE DU CHI SUNNY     36  26  67 W8        29.75S WCI  30
PLATTEVILLE    SUNNY     35  30  83 SW10      29.74F WCI  27
$$

WIZ056-057-062-063-064-067-068-071600-
SOUTH CENTRAL WISCONSIN

CITY           SKY/WX    TMP DP  RH WIND       PRES   REMARKS
REEDSBURG      SUNNY     36  29  78 SW8       29.69S WCI  29
BARABOO/DELLS  SUNNY     36  28  75 SW8       29.68F WCI  29
LONE ROCK      SUNNY     36  28  73 SW9       29.72F WCI  29
MINERAL POINT  SUNNY     36  32  87 SW9       29.72F WCI  29
MADISON        MOSUNNY   36  29  75 SW10G20   29.71F WCI  28
MIDDLETON      SUNNY     37  30  74 SW15G21   29.70F WCI  28
WATERTOWN      CLOUDY    36  30  80 SW12G18   29.71S WCI  28
MONROE         MOSUNNY   34  30  86 SW17      29.73S WCI  23
JANESVILLE     MOSUNNY   37  30  75 SW16G22   29.74F WCI  28
$$

WIZ051-052-058>065-066-070>072-071600-
SOUTHEAST WISCONSIN

CITY           SKY/WX    TMP DP  RH WIND       PRES   REMARKS
MILWAUKEE      CLOUDY    39  29  67 SW16G22   29.74S WCI  30
WAUKESHA       SUNNY     36  28  75 SW12G17   29.73F WCI  27
MILWAUKEE/TIMM SUNNY     37  27  65 MISG      29.74F
RACINE         CLOUDY    39  28  64 SW16G24   29.75F WCI  30
BURLINGTON     CLOUDY    36  28  74 SW15G21   29.75S WCI  27
KENOSHA        CLOUDY    39  29  67 SW15G24   29.74F WCI  31
FOND DU LAC    MOSUNNY   37  30  75 SW15      29.67F WCI  28
SHEBOYGAN      CLOUDY    37  29  72 SW14      29.68F WCI  28
WEST BEND      CLOUDY    36  30  80 SW9       29.70F WCI  29
JUNEAU         CLOUDY    35  29  80 SW15      29.71S WCI  25
$$

LSZ147-162-071600-
LAKE SUPERIOR

STATION/POSITION TIME  TEMP    WIND        PRES    WAVE
                       AIR SEA DIR/SP/G            HT/PER
                 (UTC) (F)     (DEG/KT/KT) (MB)    (FT/S)
DEVILS ISLAND    1500   32     170/  7/ 11  998.7F
SAXON HARBOR     1400   34                  999.0F
$$

LMZ867-665-643>646-071600-
LAKE MICHIGAN

STATION/POSITION TIME  TEMP    WIND        PRES    WAVE
                       AIR SEA DIR/SP/G            HT/PER
                 (UTC) (F)     (DEG/KT/KT) (MB)    (FT/S)
CHAMBERS ISLAND  1400   35     170/  5/ 11 1004.7F
ALGOMA LAKESHORE 1441          220/ 11/ 13   N/A
KEWAUNEE LAKESHO 1400   35     200/  8/ 10 1004.6F
SHEBOYGAN LAKESH 1500   39     220/ 15/ 18 1006.0F
PORT WASHINGTON  1400   39     220/  7/ 14 1007.5F
MILWAUKEE LAKESH 1410   39     210/ 16/ 19   N/A
KENOSHA   LAKESH 1500   40     230/ 15/ 24 1007.5F
$$

TC  - TEMPERATURE IN CELSIUS
VSB - VISIBILITY IN STATUTE MILES
WCI - WIND CHILL INDEX
HX  - HEAT INDEX




USA.gov is the U.S. government's official web portal to all federal, state and local government web resources and services.